TimeMST,TemperatureF,Dew PointF,Humidity,Sea Level PressureIn,VisibilityMPH,Wind Direction,Wind SpeedMPH,Gust SpeedMPH,PrecipitationIn,Events,Conditions,WindDirDegrees,DateUTC
12:57 AM,59.0,57.0,93,30.01,10.0,Calm,Calm,-,N/A,,Mostly Cloudy,0,2013-07-23 07:57:00
1:57 AM,61.0,57.0,87,30.04,10.0,ENE,4.6,-,N/A,,Scattered Clouds,60,2013-07-23 08:57:00
2:57 AM,57.9,55.9,93,30.03,10.0,Calm,Calm,-,N/A,,Clear,0,2013-07-23 09:57:00
3:57 AM,57.9,55.0,90,30.01,10.0,Calm,Calm,-,N/A,,Clear,0,2013-07-23 10:57:00
4:57 AM,55.9,54.0,93,30.00,10.0,Calm,Calm,-,N/A,,Clear,0,2013-07-23 11:57:00
5:57 AM,55.9,54.0,93,30.01,10.0,Calm,Calm,-,N/A,,Clear,0,2013-07-23 12:57:00
6:57 AM,57.9,55.9,93,30.04,10.0,SW,3.5,-,N/A,,Clear,220,2013-07-23 13:57:00
7:57 AM,66.9,55.9,68,30.03,10.0,NW,5.8,-,N/A,,Clear,310,2013-07-23 14:57:00
8:57 AM,69.1,55.9,63,30.02,10.0,Variable,6.9,-,N/A,,Clear,0,2013-07-23 15:57:00
9:57 AM,73.0,55.9,55,30.02,10.0,WSW,12.7,16.1,N/A,,Scattered Clouds,240,2013-07-23 16:57:00
10:57 AM,73.9,53.1,48,30.01,10.0,Variable,6.9,-,N/A,,Partly Cloudy,0,2013-07-23 17:57:00
11:57 AM,73.9,53.1,48,29.99,10.0,South,4.6,-,N/A,,Scattered Clouds,180,2013-07-23 18:57:00
12:57 PM,75.0,57.0,53,29.99,10.0,West,8.1,-,N/A,,Mostly Cloudy,260,2013-07-23 19:57:00
1:57 PM,69.1,54.0,58,30.00,10.0,North,9.2,-,N/A,,Overcast,350,2013-07-23 20:57:00
2:05 PM,69.8,55.4,60,30.30,10.0,NNW,8.1,-,N/A,Thunderstorm,Thunderstorm,340,2013-07-23 21:05:00
2:57 PM,68.0,55.0,63,30.02,10.0,NNE,9.2,-,N/A,Thunderstorm,Thunderstorm,30,2013-07-23 21:57:00
3:57 PM,64.9,55.9,73,30.02,10.0,WSW,5.8,-,N/A,,Clear,240,2013-07-23 22:57:00
4:57 PM,70.0,55.9,61,30.01,10.0,West,5.8,-,N/A,,Partly Cloudy,270,2013-07-23 23:57:00
5:57 PM,69.1,55.0,61,29.98,10.0,Variable,4.6,-,N/A,,Clear,0,2013-07-24 00:57:00
6:57 PM,66.0,57.0,73,30.01,10.0,Calm,Calm,-,N/A,,Clear,0,2013-07-24 01:57:00
7:57 PM,63.0,57.0,81,29.99,10.0,Calm,Calm,-,N/A,,Clear,0,2013-07-24 02:57:00
8:57 PM,60.1,55.9,86,30.01,10.0,Calm,Calm,-,N/A,,Clear,0,2013-07-24 03:57:00
9:57 PM,57.9,55.9,93,30.01,10.0,ENE,3.5,-,N/A,,Clear,70,2013-07-24 04:57:00
10:57 PM,57.0,54.0,89,30.01,10.0,Calm,Calm,-,N/A,,Clear,0,2013-07-24 05:57:00
11:57 PM,55.9,53.1,90,30.01,10.0,Calm,Calm,-,N/A,,Clear,0,2013-07-24 06:57:00